This is the latest recevied weather packets stored in our database for station/object W4SKW. If no packets are shown the sender has not sent any weather packets the latest 10 day(s).
| Time | Temp. | Humidity | Pressure | Rain* | Wind** | Luminosity | Snow |
|---|---|---|---|---|---|---|---|
| 1777710437 | 12.78° C | 59% | 1014 hPa | 0 mm | - | 0 W/m² | - |
| 1777710134 | 12.78° C | 56% | 1014 hPa | 0 mm | - | 0 W/m² | - |
| 1777709831 | 12.78° C | 58% | 1014.3 hPa | 0 mm | - | 0 W/m² | - |
| 1777709529 | 12.78° C | 57% | 1014.2 hPa | 0 mm | - | 0 W/m² | - |
| 1777709226 | 13.33° C | 57% | 1014.3 hPa | 0 mm | - | 0 W/m² | - |
| 1777708924 | 13.33° C | 57% | 1014.3 hPa | 0 mm | - | 0 W/m² | - |
| 1777708621 | 13.33° C | 58% | 1014.3 hPa | 0 mm | - | 0 W/m² | - |
| 1777708318 | 13.33° C | 57% | 1014.4 hPa | 0 mm | - | 0 W/m² | - |
| 1777708016 | 13.33° C | 60% | 1014.7 hPa | 0 mm | - | 0 W/m² | - |
| 1777707713 | 13.33° C | 60% | 1014.6 hPa | 0 mm | - | 0 W/m² | - |
| 1777707409 | 13.33° C | 61% | 1014.7 hPa | 0 mm | - | 0 W/m² | - |
| 1777707105 | 13.33° C | 58% | 1014.6 hPa | 0 mm | - | 0 W/m² | - |
| 1777706803 | 13.33° C | 57% | 1014.7 hPa | 0 mm | - | 0 W/m² | - |
| 1777706501 | 13.33° C | 62% | 1014.5 hPa | 0 mm | - | 0 W/m² | - |
| 1777706198 | 13.89° C | 56% | 1014.3 hPa | 0 mm | - | 0 W/m² | - |
| 1777705896 | 13.89° C | 55% | 1014.7 hPa | 0 mm | - | 0 W/m² | - |
| 1777705594 | 13.89° C | 59% | 1014.7 hPa | 0 mm | - | 0 W/m² | - |
| 1777705292 | 13.89° C | 66% | 1014.8 hPa | 0 mm | - | 0 W/m² | - |
| 1777704990 | 13.89° C | 56% | 1014.9 hPa | 0 mm | - | 0 W/m² | - |
| 1777704687 | 13.89° C | 56% | 1015 hPa | 0 mm | - | 0 W/m² | - |
| 1777704386 | 13.89° C | 55% | 1015.1 hPa | 0 mm | - | 0 W/m² | - |
| 1777704083 | 13.89° C | 58% | 1015.1 hPa | 0 mm | - | 0 W/m² | - |
| 1777703781 | 13.89° C | 58% | 1015.1 hPa | 0 mm | - | 0 W/m² | - |
| 1777703478 | 13.89° C | 67% | 1015 hPa | 0 mm | - | 0 W/m² | - |
| 1777703175 | 13.89° C | 64% | 1015 hPa | 0 mm | - | 0 W/m² | - |
* Rain latest hour (hover to see other rain measurements)
** Current wind speed in m/s (hover to see current wind gust speed)